Find Starlink 37820

NORAD ID: 69423 Int'l Des: 2026-126 Owner: SPXS Country: US Constellation: starlink operational
LEOCIRCULARRETROGRADE

当前视图

正在加载3D地球...

About Starlink 37820

Starlink 37820 (NORAD 69423) is a starlink constellation satellite launched Jun 7, 2026 by SPXS of US. It operates in LEO, CIRCULAR, RETROGRADE orbit with a mass of 575.00 kg.

即将过境

Passes for default location (London). Set your location on the main map for personalized predictions.

高度历史

Loading altitude history...

两行轨道根数

1 69423U 26126D 26206.58335648 .00099343 00000-0 18084-2 0 9990
2 69423 97.2848 68.3686 0002149 87.7490 306.9420 15.49139365 5973
Epoch: Jul 25, 2026 • Age: 20 hours

当前状态

高度 429.5 km
远地点 / 近地点 N/A
速度 7.66 km/s
星下点 70.50°N, 50.64°W
发射日期 Jun 7, 2026
运行时间 0.1 years
类型 internet

技术详情

分类 Payload
质量 575.00 kg
干质量 530.00 kg
总质量 575.00 kg
长度 0.30 m
直径 4.10 m
跨度 29.00 m
形状 Box + pan
制造商 SPXS
平台类型 Starlink V2MO
阶段状态 In Orbit
所有者/国家 SPXS/US

Most Searched